Regional Weather Roundup
Issued by NWS

Home | Current Version | Previous Version | Graphics & Text | Print | Product List | Glossary On
Versions: 1 2 3 4 5 6 7 8 9 10 11 12 13 14 15 16 17 18 19 20 21 22 23 24 25 26 27 28 29 30 31 32 33 34 35 36 37 38 39 40 41 42 43 44 45 46 47 48 49 50
725
ASUS44 KJAN 310103
RWRMS

MISSISSIPPI HOURLY WEATHER ROUNDUP
NATIONAL WEATHER SERVICE JACKSON MS
800 PM CDT WED JUL 30 2014

NOTE: "FAIR: INDICATES FEW OR NO CLOUDS BELOW 12,000 FEET WITH NO
SIGNIFICANT WEATHER AND/OR OBSTRUCTIONS TO VISIBILITY.

MSZ001>002-007>008-010>013-018>021-025>028-034>036-310200-
NORTHWEST MISSISSIPPI

CITY           SKY/WX    TMP DP  RH WIND       PRES   REMARKS
CLARKSDALE     FAIR      75  68  78 CALM      30.07S
CLEVELAND      MOCLDY    75  69  84 N3        30.05F
GREENWOOD      CLOUDY    73  67  81 CALM      30.06S
GREENVILLE     LGT RAIN  74  69  85 CALM      30.05F
GRENADA        FAIR      72  66  83 CALM      30.06S
OXFORD         FAIR      73  64  73 CALM      30.08F
TUNICA         CLOUDY    73  64  73 CALM      30.07S
$$

MSZ003>006-009-014>017-022>024-029>033-037>039-310200-
NORTHEAST MISSISSIPPI

CITY           SKY/WX    TMP DP  RH WIND       PRES   REMARKS
BELMONT        FAIR      73  62  66 CALM      30.06F
COLUMBUS AFB   CLOUDY    74  63  69 N3        30.06S
CORINTH        FAIR      72  66  83 NW3       30.06F
STARKVILLE     FAIR      73  63  68 CALM      30.06S
TUPELO         CLOUDY    75  62  64 NE3       30.06S
$$

MSZ040-058-310200-
CENTRAL MISSISSIPPI

CITY           SKY/WX    TMP DP  RH WIND       PRES   REMARKS
JACKSON INTL   MOCLDY    76  61  59 N6        30.05R
JACKSON HAWKNS PTCLDY    78  59  51 MISG      30.06R
MERIDIAN KEY   PTCLDY    78  54  43 NE8       30.04R
MERIDIAN NAS   MOCLDY    76  58  53 N6        30.05S
RAYMOND        FAIR      73  68  83 N3        30.04F
VICKSBURG      MOCLDY    76  64  66 N5        30.04S
$$

MSZ059>079-310200-
SOUTH MISSISSIPPI

CITY           SKY/WX    TMP DP  RH WIND       PRES   REMARKS
BROOKHAVEN     FAIR      73  66  78 CALM      30.06S
COLUMBIA       FAIR      75  64  69 CALM      30.01F
HATTIESBURG    CLEAR     78  62  57 CALM      30.03S
MCCOMB         CLEAR     78  60  53 NE3       30.03S
NATCHEZ        PTCLDY    77  63  61 NE5       30.04S
PINE BELT      PTCLDY    75  61  60 CALM      30.05S
$$

MSZ080>082-310200-
COASTAL MISSISSIPPI

CITY           SKY/WX    TMP DP  RH WIND       PRES   REMARKS
BAY ST LOUIS   CLEAR    N/A N/A N/A CALM      30.01R
BILOXI         CLEAR     80  59  48 NE8       30.00R
PASCAGOULA     CLEAR     73  67  81 CALM      30.00R
GULFPORT       CLEAR     84  58  40 N7        30.00R
$$



USA.gov is the U.S. government's official web portal to all federal, state and local government web resources and services.